Location: Drocourt
(49.0571°N, 1.7669°E)
Time: 14:50:47
(UTC+00:00)

Vanguard 2 Rocket - Pass Details

Date: 13 April 2024
Orbit: 556 x 3304 km, 32.9° (Epoch: 22 May)

Event Time Altitude Azimuth Distance (km) Brightness Sun altitude
Rises 22:18:54 0° 218° (SW) 6,919 11.2 -27.9°
Reaches altitude 10° 22:24:01 10° 210° (SSW) 6,102 10.8 -28.3°
Enters shadow 22:29:38 21° 198° (SSW) 5,316 10.3 -28.6°
Exits shadow 22:48:13 26° 120° (ESE) 4,695 10.1 -29.7°
Drops below altitude 10° 22:55:10 10° 99° (E) 5,497 10.6 -30.1°
Sets 22:59:25 0° 91° (E) 6,188 11.0 -30.3°
